Погода в Кудымкаре

Погода в Кудымкаре : погода сейчас, прогноз погоды и архив. Всё, что Вы хотите узнать о погоде в Кудымкаре!

Хотите узнать прогноз погоды в Кудымкаре? Тогда Вам сюда: Погода в Кудымкаре

Поиск расширенной информации на нашем сайте:

Другие новости

Новости СМИ2

Главная страница сайта

Новости сайта

03.07.2017

Напоминаем, что на нашем специализированном сайте Метеоцентр.Азия вы можете получить высокодетализированные автоматические прогнозы погоды по пунктам России, СНГ и мира в авиационном формате (включающие направление и скорость ветра, видимость, явления погоды, количество и форму облачности, нижнюю и верхнюю границу облачности).

Рекомендуем: Все страницы Hypernova.ru/sitemap

Погода в Кудымкаре - сегодня

Время (UTC), дата Ветер
(°,м/с) 
Видим.   Явления Облачность Т
(°С)
Тd
(°С)
f(%) Тe
(°С)
Pmin
(гПа)
dP
(гПа)
Po
(мм)
O2
(г/м3)
Тmin Tmax R s Состояние
почвы
03 17.02.18 210 (ЮЗ) 4000 м  слаб. снег  10/10 300 м 
[Frnb|Ns]
-10.5 -12.4 86 -12  1036.1  -0.9  758  319  -12.2    0.2  34  равномерный
сухой снег
100% 
06 17.02.18 230 (ЮЗ) 4000 м  слаб. снег  10/10 2000 м 
[Ac As]
-8.2 -10.8 81 -11  1034.9  -1  758  316           
09 17.02.18 220 (ЮЗ) 20000 м  слаб. снег  10/10 2000 м 
[Ac As]
-5.9 -9 79 -7  1034.3  -0.3  758  313           
12 17.02.18 230 (ЮЗ) 20000 м  в посл. час снег  9/9 2000 м средняя 
[Ac As]
-3.5 -7.2 75 -5  1033.3  -0.7  757  310           
18 17.02.18 230 (ЮЗ) 20000 м    10/10 300 м 
[Sc]
-5.7 -10.4 69 -9  1033.2  -0.4  757  312           
21 17.02.18 220 (ЮЗ) 20000 м    10/10 300 м 
[Sc]
-6.3 -11.3 68 -9  1032.8  -0.4  756  313           
00 18.02.18 230 (ЮЗ) 20000 м    10/10 300 м 
[Sc]
-6.7 -12.2 65 -9  1032.4  -0.5  756  313           
03 18.02.18 220 (ЮЗ) 20000 м    8/3 300 м средняя 
[Sc|Ac cast]
-7.8 -12.8 67 -9  1032.2  -0.2  756  315  -7.8      34  равномерный
сухой снег
100% 
06 18.02.18 220 (ЮЗ) 20000 м    9/8 2000 м средняя, верхняя 
[Ac As|Cs]
-9 -12.5 76 -11  1032  -0.3  756  316  -9.7         
09 18.02.18 200 (Ю) 4000 м  в посл. час снег  10/10 2000 м 
[Ns]
-6.6 -10 77 -8  1031.6  -0.2  755  313           
12 18.02.18 200 (Ю) 4000 м  слаб. снег  10/10 2000 м 
[Ns]
-5.4 -8.2 81 -7  1030.6  -0.8  755  311           
18 18.02.18 200 (Ю) 20000 м  {снег}  5/0 верхняя 
[Cs]
-7.1 -11.8 69 -9  1029.4  -0.6  754  313           
21 18.02.18 200 (Ю) 20000 м    9/9 600 м 
[Sc]
-8.4 -11.8 76 -10  1028.9  -0.6  753  314           
00 19.02.18 180 (Ю) 20000 м    9/9 600 м 
[Sc]
-9 -11.8 80 -11  1027.9  -1  753  315           
03 19.02.18 180 (Ю) 20000 м    10/8 300 м средняя 
[Sc|Ac trans]
-9.6 -12.1 82 -11  1026.5  -1.4  752  315  -9.6      34  равномерный
сухой снег
100% 
06 19.02.18 180 (Ю) 20000 м    10/9 300 м средняя 
[Sc|As trans]
-8.5 -12.1 75 -10  1025.3  -1.1  751  313  -9.6         
09 19.02.18 140 (ЮВ) 4000 м  слаб. снег  10/10 2000 м 
[As trans]
-6.6 -10.1 76 -8  1023.7  -1.4  750  311           
12 19.02.18 170 (Ю) 4000 м  снег  10/10 2000 м 
[Ns]
-6.9 -9 85 -8  1022.7  -1  749  311           
18 19.02.18 190 (Ю) 4000 м  слаб. снег  10/10 300 м 
[Sc]
-8.6 -10 90 -10  1020.9  -0.9  748  312           
21 19.02.18 180 (Ю) 4000 м  слаб. снег  10/10 300 м 
[Sc]
-9.3 -10.1 94 -9  1020  -0.9  747  313           
00 20.02.18 180 (Ю) 4000 м  слаб. снег  10/10 300 м 
[Sc]
-9.8 -10.4 95 -10  1019.2  -0.9  746  313           
03 20.02.18 170 (Ю) 4000 м  слаб. снег  10/10 300 м 
[Frnb|Ns]
-10.1 -10.6 96 -10  1017.5  -1.6  745  313  -10.1    0.7  36  равномерный
сухой снег
100% 
09 20.02.18 170 (Ю) 20000 м  в посл. час снег  10/4 600 м верхняя 
[Cu med, cong|Cc]
-7.2 -11.1 74 -7  1015.7  -0.7  744  309           
12 20.02.18 140 (ЮВ) 10 км  {снег}  10/4 600 м верхняя 
[Cu med, cong|Cc]
-7.5 -11 76 -7  1014.9  -0.8  743  309           
18 20.02.18 190 (Ю) 4000 м  слаб. снег  10/10 2000 м 
[Ac As]
-13.4 -14.1 94 -13  1014.1  -0.8  742  316           
Время (UTC), дата Ветер
(°,м/с) 
Видим.   Явления Облачность Т
(°С)
Тd
(°С)
f(%) Тe
(°С)
Pmin
(гПа)
dP
(гПа)
Po
(мм)
O2
(г/м3)
Тmin Tmax R s Состояние
почвы

Для получения пояснительной информации подведите курсор к названию столбца.

ПОГОДА в Кудымкаре - архив

Всё, что Вы хотите узнать о погоде в Кудымкаре - удобно и подробно!

Выберите нужную дату (начиная с 1 января 2015* года) и нажмите кнопку "Найти".
Будут отображены архивные сводки погоды по пункту Кудымкар, начиная с указанной даты.


Отображать данные в формате CSV (для использования в таблицах Excel)


Внимание! Наш архив погоды предназначен исключительно для личного некоммерческого использования в познавательных целях. Если Вам необходимы официальные справки о состоянии погоды (для производственных, юридических, коммерческих и т.п. целей), обращайтесь в органы Росгидромета.

*Примечание: данная дата относится к архиву по метеостанциям СССР (Россия, СНГ, Балтия).
Архив по метеостанциям Зарубежной Европы и Азии (кроме Китая) хранится 10 дней, по другим регионам земного шара (Китай, Африка, Америка, Австралия, Океания) - 1 день.

Кудымкар - район местоположения метеостанции


Название, широта, долгота, высота метеостанции:
Кудымкар 59°ш. 54.6°д. 186 м над ур. моря [Российская Федерация]

Дополнительная информация

В oтличие oт бoльшинства пoгoдных сайтoв мы публикуем пoдрoбную метеoинфoрмацию в детальнoм прoфессиoнальнoм фoрмате.

Характеристики температуры и влажнoсти вoздуха измеряются на высoте 2 м в тени вдали oт зданий и деревьев.
Скoрoсть ветра измеряется на высoте 10 м (на урoвне рoста челoвека скoрoсть ветра ниже в 1.5-2 раза). Если метеoстанция нахoдится в гoрoде или в лесу, тo скoрoсть ветра занижена на 2-4 м/с пo сравнению с oткрытым местoм. Скoрoсть ветра над акватoриями крупных рек и oзёр, а также на вершинах хoлмoв на 2-5 м/с выше, чем в oбычных услoвиях.
Атмoсфернoе давление в разных тoчках местнoсти мoжет значительнo oтличаться oт давления на метеoстанции, в зависимoсти oт услoвий рельефа (при пoдъёме на 10 м давление пoнижается примернo на 1 мм рт.ст.).